Time,TemperatureF,DewpointF,PressureIn,WindDirection,WindDirectionDegrees,WindSpeedMPH,WindSpeedGustMPH,Humidity,HourlyPrecipIn,Conditions,Clouds,dailyrainin,SoftwareType,DateUTC
2013-03-06 00:02:00,25.0,21.0,30.37,NNW,330,3.0,-999.0,85,-99.99,,,-99.99,,2013-03-06 06:02:00,
2013-03-06 00:11:00,23.0,19.0,30.37,North,0,0.0,-999.0,85,-99.99,,,-99.99,,2013-03-06 06:11:00,
2013-03-06 00:22:00,25.0,21.0,30.38,North,0,0.0,-999.0,85,-99.99,,,-99.99,,2013-03-06 06:22:00,
2013-03-06 00:31:00,27.0,21.0,30.38,North,0,0.0,-999.0,79,-99.99,,,-99.99,,2013-03-06 06:31:00,
2013-03-06 00:42:00,27.0,21.0,30.38,North,0,0.0,-999.0,79,-99.99,,,-99.99,,2013-03-06 06:42:00,
2013-03-06 00:52:00,27.0,21.0,30.38,North,350,3.0,-999.0,79,-99.99,,,-99.99,,2013-03-06 06:52:00,
2013-03-06 01:01:00,27.0,21.0,30.38,North,350,3.0,-999.0,79,-99.99,,,-99.99,,2013-03-06 07:01:00,
2013-03-06 01:11:00,27.0,19.0,30.38,North,350,3.0,-999.0,73,-99.99,,,-99.99,,2013-03-06 07:11:00,
2013-03-06 01:22:00,25.0,19.0,30.38,North,350,5.0,-999.0,79,-99.99,,,-99.99,,2013-03-06 07:22:00,
2013-03-06 01:31:00,25.0,19.0,30.39,North,350,6.0,-999.0,79,-99.99,,,-99.99,,2013-03-06 07:31:00,
2013-03-06 01:42:00,25.0,19.0,30.39,North,350,5.0,-999.0,79,-99.99,,,-99.99,,2013-03-06 07:42:00,
2013-03-06 01:52:00,25.0,19.0,30.39,North,350,5.0,-999.0,79,-99.99,,,-99.99,,2013-03-06 07:52:00,
2013-03-06 02:01:00,25.0,19.0,30.39,North,350,5.0,-999.0,79,-99.99,,,-99.99,,2013-03-06 08:01:00,
2013-03-06 02:11:00,23.0,19.0,30.40,North,350,3.0,-999.0,85,-99.99,,,-99.99,,2013-03-06 08:11:00,
2013-03-06 02:21:00,23.0,19.0,30.40,North,0,0.0,-999.0,85,-99.99,,,-99.99,,2013-03-06 08:21:00,
2013-03-06 02:31:00,23.0,19.0,30.39,North,10,5.0,-999.0,85,-99.99,,,-99.99,,2013-03-06 08:31:00,
2013-03-06 02:42:00,23.0,19.0,30.39,North,360,5.0,-999.0,85,-99.99,,,-99.99,,2013-03-06 08:42:00,
2013-03-06 02:52:00,21.0,18.0,30.37,NNE,30,6.0,-999.0,85,-99.99,,,-99.99,,2013-03-06 08:52:00,
2013-03-06 03:01:00,21.0,18.0,30.37,NNE,30,6.0,-999.0,85,-99.99,,,-99.99,,2013-03-06 09:01:00,
2013-03-06 03:12:00,23.0,19.0,30.37,NNE,30,6.0,-999.0,85,-99.99,,,-99.99,,2013-03-06 09:12:00,
2013-03-06 03:21:00,23.0,19.0,30.37,NE,40,3.0,-999.0,85,-99.99,,,-99.99,,2013-03-06 09:21:00,
2013-03-06 03:31:00,23.0,19.0,30.37,North,0,0.0,-999.0,85,-99.99,,,-99.99,,2013-03-06 09:31:00,
2013-03-06 03:42:00,25.0,21.0,30.37,North,0,0.0,-999.0,85,-99.99,,,-99.99,,2013-03-06 09:42:00,
2013-03-06 03:51:00,25.0,21.0,30.37,North,0,0.0,-999.0,85,-99.99,,,-99.99,,2013-03-06 09:51:00,
2013-03-06 04:01:00,25.0,21.0,30.37,North,0,0.0,-999.0,85,-99.99,,,-99.99,,2013-03-06 10:01:00,
2013-03-06 04:11:00,25.0,19.0,30.37,NNE,30,3.0,-999.0,79,-99.99,,,-99.99,,2013-03-06 10:11:00,
2013-03-06 04:21:00,23.0,19.0,30.37,ENE,60,3.0,-999.0,85,-99.99,,,-99.99,,2013-03-06 10:21:00,
2013-03-06 04:31:00,25.0,19.0,30.37,ENE,70,3.0,-999.0,79,-99.99,,,-99.99,,2013-03-06 10:31:00,
2013-03-06 04:42:00,25.0,19.0,30.36,ENE,60,5.0,-999.0,79,-99.99,,,-99.99,,2013-03-06 10:42:00,
2013-03-06 04:51:00,23.0,19.0,30.35,ENE,60,6.0,-999.0,85,-99.99,,,-99.99,,2013-03-06 10:51:00,
2013-03-06 05:02:00,23.0,19.0,30.35,ENE,60,6.0,-999.0,85,-99.99,,,-99.99,,2013-03-06 11:02:00,
2013-03-06 05:11:00,25.0,19.0,30.36,North,0,0.0,-999.0,79,-99.99,,,-99.99,,2013-03-06 11:11:00,
2013-03-06 05:22:00,25.0,19.0,30.36,ENE,60,5.0,-999.0,79,-99.99,,,-99.99,,2013-03-06 11:22:00,
2013-03-06 05:32:00,23.0,18.0,30.36,North,0,0.0,-999.0,79,-99.99,,,-99.99,,2013-03-06 11:32:00,
2013-03-06 05:42:00,21.0,18.0,30.37,North,0,0.0,-999.0,85,-99.99,,,-99.99,,2013-03-06 11:42:00,
2013-03-06 05:52:00,25.0,19.0,30.37,North,0,0.0,-999.0,79,-99.99,,,-99.99,,2013-03-06 11:52:00,
2013-03-06 06:02:00,25.0,19.0,30.37,North,0,0.0,-999.0,79,-99.99,,,-99.99,,2013-03-06 12:02:00,
2013-03-06 06:11:00,23.0,18.0,30.37,North,0,0.0,-999.0,79,-99.99,,,-99.99,,2013-03-06 12:11:00,
2013-03-06 06:21:00,23.0,18.0,30.37,ENE,70,3.0,-999.0,79,-99.99,,,-99.99,,2013-03-06 12:21:00,
2013-03-06 06:32:00,23.0,18.0,30.37,North,0,0.0,-999.0,79,-99.99,,,-99.99,,2013-03-06 12:32:00,
2013-03-06 06:42:00,23.0,18.0,30.37,North,0,0.0,-999.0,79,-99.99,,,-99.99,,2013-03-06 12:42:00,
2013-03-06 06:52:00,21.0,18.0,30.37,East,90,3.0,-999.0,85,-99.99,,,-99.99,,2013-03-06 12:52:00,
2013-03-06 07:02:00,21.0,18.0,30.37,East,90,3.0,-999.0,85,-99.99,,,-99.99,,2013-03-06 13:02:00,
2013-03-06 07:11:00,23.0,18.0,30.38,North,0,0.0,-999.0,79,-99.99,,,-99.99,,2013-03-06 13:11:00,
2013-03-06 07:22:00,23.0,18.0,30.38,North,0,0.0,-999.0,79,-99.99,,,-99.99,,2013-03-06 13:22:00,
2013-03-06 07:32:00,23.0,19.0,30.38,North,0,0.0,-999.0,85,-99.99,,,-99.99,,2013-03-06 13:32:00,
2013-03-06 07:42:00,23.0,19.0,30.38,North,0,0.0,-999.0,85,-99.99,,,-99.99,,2013-03-06 13:42:00,
2013-03-06 07:52:00,25.0,19.0,30.39,North,0,0.0,-999.0,79,-99.99,,,-99.99,,2013-03-06 13:52:00,
2013-03-06 08:01:00,25.0,19.0,30.39,North,0,0.0,-999.0,79,-99.99,,,-99.99,,2013-03-06 14:01:00,
2013-03-06 08:11:00,27.0,19.0,30.39,East,90,5.0,-999.0,73,-99.99,,,-99.99,,2013-03-06 14:11:00,
2013-03-06 08:21:00,27.0,19.0,30.40,East,100,5.0,-999.0,73,-99.99,,,-99.99,,2013-03-06 14:21:00,
2013-03-06 08:32:00,27.0,19.0,30.40,ESE,110,7.0,-999.0,73,-99.99,,,-99.99,,2013-03-06 14:32:00,
2013-03-06 08:42:00,27.0,19.0,30.40,East,100,8.0,-999.0,73,-99.99,,,-99.99,,2013-03-06 14:42:00,
2013-03-06 08:52:00,27.0,21.0,30.40,East,100,8.0,-999.0,79,-99.99,,,-99.99,,2013-03-06 14:52:00,
2013-03-06 09:02:00,27.0,21.0,30.40,East,100,8.0,-999.0,79,-99.99,,,-99.99,,2013-03-06 15:02:00,
2013-03-06 09:11:00,28.0,21.0,30.41,SE,130,6.0,-999.0,74,-99.99,,,-99.99,,2013-03-06 15:11:00,
2013-03-06 09:21:00,28.0,21.0,30.41,ESE,120,6.0,-999.0,74,-99.99,,,-99.99,,2013-03-06 15:21:00,
2013-03-06 09:32:00,28.0,21.0,30.41,ESE,120,8.0,-999.0,74,-99.99,,,-99.99,,2013-03-06 15:32:00,
2013-03-06 09:42:00,28.0,19.0,30.41,ESE,120,7.0,-999.0,68,-99.99,,,-99.99,,2013-03-06 15:42:00,
2013-03-06 09:52:00,30.0,21.0,30.40,SE,130,7.0,-999.0,68,-99.99,,,-99.99,,2013-03-06 15:52:00,
2013-03-06 10:01:00,30.0,21.0,30.40,SE,130,7.0,-999.0,68,-99.99,,,-99.99,,2013-03-06 16:01:00,
2013-03-06 10:11:00,32.0,21.0,30.40,SSE,160,8.0,-999.0,63,-99.99,,,-99.99,,2013-03-06 16:11:00,
2013-03-06 10:21:00,32.0,21.0,30.40,SSE,150,6.0,-999.0,63,-99.99,,,-99.99,,2013-03-06 16:21:00,
2013-03-06 10:32:00,32.0,21.0,30.40,SSE,150,7.0,-999.0,63,-99.99,,,-99.99,,2013-03-06 16:32:00,
2013-03-06 10:42:00,32.0,21.0,30.39,SSE,150,6.0,-999.0,63,-99.99,,,-99.99,,2013-03-06 16:42:00,
2013-03-06 10:52:00,34.0,21.0,30.39,SSE,150,5.0,-999.0,59,-99.99,,,-99.99,,2013-03-06 16:52:00,
2013-03-06 11:01:00,34.0,21.0,30.39,SSE,150,5.0,-999.0,59,-99.99,,,-99.99,,2013-03-06 17:01:00,
2013-03-06 11:11:00,34.0,23.0,30.39,South,170,9.0,-999.0,64,-99.99,,,-99.99,,2013-03-06 17:11:00,
2013-03-06 11:21:00,36.0,23.0,30.38,SSE,160,8.0,-999.0,59,-99.99,,,-99.99,,2013-03-06 17:21:00,
2013-03-06 11:32:00,36.0,21.0,30.38,SSE,160,8.0,-999.0,55,-99.99,,,-99.99,,2013-03-06 17:32:00,
2013-03-06 11:41:00,36.0,21.0,30.38,SSE,150,9.0,-999.0,55,-99.99,,,-99.99,,2013-03-06 17:41:00,
2013-03-06 11:52:00,36.0,21.0,30.37,SSE,160,8.0,-999.0,55,-99.99,,,-99.99,,2013-03-06 17:52:00,
2013-03-06 12:02:00,36.0,21.0,30.37,SSE,160,8.0,-999.0,55,-99.99,,,-99.99,,2013-03-06 18:02:00,
2013-03-06 12:28:00,36.0,21.0,30.36,SSE,160,10.0,-999.0,55,-99.99,,,-99.99,,2013-03-06 18:28:00,
2013-03-06 12:42:00,37.0,23.0,30.34,SSE,160,10.0,-999.0,55,-99.99,,,-99.99,,2013-03-06 18:42:00,
2013-03-06 12:52:00,37.0,23.0,30.34,SSE,160,10.0,-999.0,55,-99.99,,,-99.99,,2013-03-06 18:52:00,
2013-03-06 13:02:00,37.0,23.0,30.34,SSE,160,10.0,-999.0,55,-99.99,,,-99.99,,2013-03-06 19:02:00,
2013-03-06 13:11:00,37.0,25.0,30.33,SSE,160,12.0,16.0,60,-99.99,,,-99.99,,2013-03-06 19:11:00,
2013-03-06 13:21:00,39.0,25.0,30.32,SSE,160,10.0,-999.0,55,-99.99,,,-99.99,,2013-03-06 19:21:00,
2013-03-06 13:32:00,39.0,25.0,30.31,SSE,160,9.0,-999.0,55,-99.99,,,-99.99,,2013-03-06 19:32:00,
2013-03-06 13:43:00,37.0,25.0,30.30,SSE,150,9.0,-999.0,60,-99.99,,,-99.99,,2013-03-06 19:43:00,
2013-03-06 13:52:00,41.0,25.0,30.29,SSE,150,12.0,20.0,52,-99.99,,,-99.99,,2013-03-06 19:52:00,
2013-03-06 14:01:00,41.0,25.0,30.29,SSE,150,12.0,20.0,52,-99.99,,,-99.99,,2013-03-06 20:01:00,
2013-03-06 14:11:00,43.0,25.0,30.28,SE,140,12.0,-999.0,48,-99.99,,,-99.99,,2013-03-06 20:11:00,
2013-03-06 14:22:00,43.0,25.0,30.27,SE,130,12.0,-999.0,48,-99.99,,,-99.99,,2013-03-06 20:22:00,
2013-03-06 14:32:00,43.0,25.0,30.26,SE,130,14.0,18.0,48,-99.99,,,-99.99,,2013-03-06 20:32:00,
2013-03-06 14:42:00,43.0,25.0,30.25,SE,130,12.0,16.0,48,-99.99,,,-99.99,,2013-03-06 20:42:00,
2013-03-06 14:52:00,43.0,25.0,30.25,SE,140,13.0,-999.0,48,-99.99,,,-99.99,,2013-03-06 20:52:00,
2013-03-06 15:02:00,43.0,25.0,30.25,SE,140,13.0,-999.0,48,-99.99,,,-99.99,,2013-03-06 21:02:00,
2013-03-06 15:11:00,43.0,25.0,30.24,SE,140,13.0,20.0,48,-99.99,,,-99.99,,2013-03-06 21:11:00,
2013-03-06 15:22:00,45.0,25.0,30.23,SE,130,13.0,-999.0,45,-99.99,,,-99.99,,2013-03-06 21:22:00,
2013-03-06 15:32:00,45.0,25.0,30.23,SE,140,12.0,20.0,45,-99.99,,,-99.99,,2013-03-06 21:32:00,
2013-03-06 15:42:00,45.0,25.0,30.23,SSE,150,16.0,20.0,45,-99.99,,,-99.99,,2013-03-06 21:42:00,
2013-03-06 15:51:00,45.0,25.0,30.23,SE,140,13.0,20.0,45,-99.99,,,-99.99,,2013-03-06 21:51:00,
2013-03-06 16:01:00,45.0,25.0,30.23,SE,140,13.0,20.0,45,-99.99,,,-99.99,,2013-03-06 22:01:00,
2013-03-06 16:11:00,45.0,25.0,30.22,SE,130,14.0,-999.0,45,-99.99,,,-99.99,,2013-03-06 22:11:00,
2013-03-06 16:21:00,45.0,25.0,30.21,SSE,150,16.0,22.0,45,-99.99,,,-99.99,,2013-03-06 22:21:00,
2013-03-06 16:32:00,45.0,25.0,30.20,SE,140,15.0,21.0,45,-99.99,,,-99.99,,2013-03-06 22:32:00,
2013-03-06 16:41:00,45.0,25.0,30.20,SE,140,12.0,21.0,45,-99.99,,,-99.99,,2013-03-06 22:41:00,
2013-03-06 16:51:00,45.0,25.0,30.20,SE,130,13.0,18.0,45,-99.99,,,-99.99,,2013-03-06 22:51:00,
2013-03-06 17:01:00,45.0,25.0,30.20,SE,130,13.0,18.0,45,-99.99,,,-99.99,,2013-03-06 23:01:00,
2013-03-06 17:11:00,45.0,27.0,30.19,SE,140,15.0,18.0,48,-99.99,,,-99.99,,2013-03-06 23:11:00,
2013-03-06 17:21:00,45.0,27.0,30.18,SE,130,10.0,18.0,48,-99.99,,,-99.99,,2013-03-06 23:21:00,
2013-03-06 17:32:00,45.0,25.0,30.18,SE,140,14.0,-999.0,45,-99.99,,,-99.99,,2013-03-06 23:32:00,
2013-03-06 17:42:00,45.0,25.0,30.18,SE,140,10.0,16.0,45,-99.99,,,-99.99,,2013-03-06 23:42:00,
2013-03-06 17:52:00,45.0,25.0,30.17,SSE,150,12.0,-999.0,45,-99.99,,,-99.99,,2013-03-06 23:52:00,
2013-03-06 18:01:00,45.0,25.0,30.17,SSE,150,12.0,-999.0,45,-99.99,,,-99.99,,2013-03-07 00:01:00,
2013-03-06 18:11:00,45.0,25.0,30.17,SSE,150,10.0,16.0,45,-99.99,,,-99.99,,2013-03-07 00:11:00,
2013-03-06 18:21:00,43.0,25.0,30.17,SSE,150,12.0,-999.0,48,-99.99,,,-99.99,,2013-03-07 00:21:00,
2013-03-06 18:32:00,43.0,25.0,30.17,SSE,150,15.0,18.0,48,-99.99,,,-99.99,,2013-03-07 00:32:00,
2013-03-06 18:41:00,43.0,25.0,30.17,SE,140,14.0,-999.0,48,-99.99,,,-99.99,,2013-03-07 00:41:00,
2013-03-06 18:51:00,43.0,23.0,30.17,SSE,150,10.0,17.0,45,-99.99,,,-99.99,,2013-03-07 00:51:00,
2013-03-06 19:01:00,43.0,23.0,30.17,SSE,150,10.0,17.0,45,-99.99,,,-99.99,,2013-03-07 01:01:00,
2013-03-06 19:11:00,41.0,25.0,30.17,SE,140,9.0,-999.0,52,-99.99,,,-99.99,,2013-03-07 01:11:00,
2013-03-06 19:21:00,39.0,25.0,30.16,SE,130,10.0,-999.0,55,-99.99,,,-99.99,,2013-03-07 01:21:00,
2013-03-06 19:31:00,39.0,25.0,30.17,SE,140,9.0,-999.0,55,-99.99,,,-99.99,,2013-03-07 01:31:00,
2013-03-06 19:41:00,39.0,25.0,30.16,SE,140,9.0,-999.0,55,-99.99,,,-99.99,,2013-03-07 01:41:00,
2013-03-06 19:51:00,37.0,25.0,30.17,SE,130,7.0,-999.0,60,-99.99,,,-99.99,,2013-03-07 01:51:00,
2013-03-06 20:01:00,37.0,25.0,30.17,SE,130,7.0,-999.0,60,-99.99,,,-99.99,,2013-03-07 02:01:00,
2013-03-06 20:11:00,37.0,25.0,30.15,SE,130,9.0,-999.0,60,-99.99,,,-99.99,,2013-03-07 02:11:00,
2013-03-06 20:21:00,37.0,23.0,30.15,SE,140,9.0,-999.0,55,-99.99,,,-99.99,,2013-03-07 02:21:00,
2013-03-06 20:31:00,37.0,21.0,30.15,SE,130,12.0,16.0,51,-99.99,,,-99.99,,2013-03-07 02:31:00,
2013-03-06 20:41:00,37.0,21.0,30.15,SE,130,12.0,16.0,51,-99.99,,,-99.99,,2013-03-07 02:41:00,
2013-03-06 20:51:00,37.0,21.0,30.15,SE,130,12.0,16.0,51,-99.99,,,-99.99,,2013-03-07 02:51:00,
2013-03-06 21:02:00,37.0,21.0,30.15,SE,130,10.0,-999.0,51,-99.99,,,-99.99,,2013-03-07 03:02:00,
2013-03-06 21:11:00,37.0,21.0,30.15,SE,130,9.0,-999.0,51,-99.99,,,-99.99,,2013-03-07 03:11:00,
2013-03-06 21:21:00,37.0,23.0,30.15,SE,130,9.0,-999.0,55,-99.99,,,-99.99,,2013-03-07 03:21:00,
2013-03-06 21:32:00,37.0,23.0,30.14,SE,140,9.0,-999.0,55,-99.99,,,-99.99,,2013-03-07 03:32:00,
2013-03-06 21:41:00,37.0,23.0,30.14,SE,140,10.0,16.0,55,-99.99,,,-99.99,,2013-03-07 03:41:00,
2013-03-06 21:52:00,37.0,21.0,30.14,SE,140,10.0,-999.0,51,-99.99,,,-99.99,,2013-03-07 03:52:00,
2013-03-06 22:01:00,37.0,21.0,30.14,SE,140,10.0,-999.0,51,-99.99,,,-99.99,,2013-03-07 04:01:00,
2013-03-06 22:11:00,37.0,21.0,30.15,SE,140,9.0,-999.0,51,-99.99,,,-99.99,,2013-03-07 04:11:00,
2013-03-06 22:21:00,37.0,21.0,30.15,SE,140,10.0,-999.0,51,-99.99,,,-99.99,,2013-03-07 04:21:00,
2013-03-06 22:31:00,37.0,21.0,30.15,SE,140,9.0,-999.0,51,-99.99,,,-99.99,,2013-03-07 04:31:00,
2013-03-06 22:42:00,37.0,21.0,30.14,SE,140,10.0,-999.0,51,-99.99,,,-99.99,,2013-03-07 04:42:00,
2013-03-06 22:51:00,37.0,21.0,30.14,SE,140,10.0,-999.0,51,-99.99,,,-99.99,,2013-03-07 04:51:00,
2013-03-06 23:01:00,37.0,21.0,30.14,SE,140,10.0,-999.0,51,-99.99,,,-99.99,,2013-03-07 05:01:00,
2013-03-06 23:12:00,36.0,21.0,30.15,SE,130,12.0,-999.0,55,-99.99,,,-99.99,,2013-03-07 05:12:00,
2013-03-06 23:22:00,36.0,23.0,30.14,SE,130,10.0,-999.0,59,-99.99,,,-99.99,,2013-03-07 05:22:00,
2013-03-06 23:32:00,36.0,23.0,30.14,SE,130,9.0,-999.0,59,-99.99,,,-99.99,,2013-03-07 05:32:00,
2013-03-06 23:42:00,36.0,23.0,30.14,SE,130,12.0,-999.0,59,-99.99,,,-99.99,,2013-03-07 05:42:00,
2013-03-06 23:52:00,36.0,23.0,30.13,SE,130,12.0,-999.0,59,-99.99,,,-99.99,,2013-03-07 05:52:00,